Weather History for Mt. Pocono, PA

Change the Weather History Date:

Monday, January 21, 2013

  Actual Average Record
Temperature  
Mean Temperature 18 °F 23 °F  
Max Temperature 22 °F 31 °F 66 °F (1906)
Min Temperature 14 °F 16 °F -20 °F (1985)
Degree Days  
Heating Degree Days 47 42  
Month to date heating degree days 737 878  
Since 1 July heating degree days 3254 3615  
Cooling Degree Days 0 0  
Month to date cooling degree days 0 0  
Year to date cooling degree days 0 0  
Moisture  
Dew Point 12 °F    
Average Humidity 70    
Maximum Humidity 84    
Minimum Humidity 56    
Precipitation  
Precipitation 0.03 in 0.09 in 1.37 in (1979)
Month to date precipitation 0.41 2.12  
Year to date precipitation 0.41 2.12  
Sea Level Pressure  
Sea Level Pressure 29.85 in    
Wind  
Wind Speed 8 mph (WSW)    
Max Wind Speed 21 mph    
Max Gust Speed 28 mph    
Visibility 5 miles    
Events Snow    
T = Trace of Precipitation, MM = Missing Value Source: NWS Daily Summary

Daily Weather History Graph

Daily Weather History Graph

Search for Another Location

Airport:

Trip Planner

Search our weather history database for the weather conditions in past years. The results will help you decide how hot, cold, wet, or windy it might be!

Date:

Astronomy

Jan. 21, 2013 Rise Set
Actual Time 7:21 AM EST 5:05 PM EST
Civil Twilight 6:51 AM EST 5:34 PM EST
Nautical Twilight 6:17 AM EST 6:08 PM EST
Astronomical Twilight 5:44 AM EST 6:41 PM EST
Moon 12:43 PM EST (1/21) 2:47 AM EST (1/21)
Length of Visible Light 10h 43m
Length of Day
9h 43m
Waxing Gibbous, 75% of the Moon is Illuminated
Jan 21
Waxing Gibbous
Jan 26
Full
Feb 3
Last Quarter
Feb 10
New
Feb 17
First Quarter

Hourly Weather History & Observations

Time (EST) Temp. Windchill Dew Point Humidity Pressure Visibility Wind Dir Wind Speed Gust Speed Precip Events Conditions
12:53 AM 19.0 °F 8.2 °F 7.0 °F 59% 30.00 in 10.0 mi WNW 9.2 mph - N/A   Partly Cloudy
1:53 AM 19.0 °F 9.0 °F 6.1 °F 57% 30.01 in 10.0 mi NW 8.1 mph - N/A   Clear
2:53 AM 17.1 °F 7.6 °F 6.1 °F 62% 30.02 in 10.0 mi West 6.9 mph - N/A   Clear
4:53 AM 16.0 °F 4.4 °F 5.0 °F 62% 30.02 in 10.0 mi WNW 9.2 mph - N/A   Clear
5:53 AM 15.1 °F 7.7 °F 6.1 °F 68% 30.03 in 10.0 mi West 4.6 mph - N/A   Mostly Cloudy
7:53 AM 17.1 °F 10.0 °F 6.1 °F 62% 30.03 in 10.0 mi West 4.6 mph - N/A   Overcast
8:53 AM 18.0 °F 8.7 °F 7.0 °F 62% 30.03 in 10.0 mi West 6.9 mph - N/A   Overcast
9:53 AM 19.0 °F 10.0 °F 6.1 °F 57% 30.03 in 10.0 mi SW 6.9 mph - N/A   Overcast
10:53 AM 19.9 °F 13.4 °F 7.0 °F 57% 30.01 in 10.0 mi SW 4.6 mph - N/A   Overcast
11:53 AM 21.0 °F 12.4 °F 8.1 °F 57% 29.96 in 10.0 mi WSW 6.9 mph - N/A   Overcast
12:53 PM 21.9 °F 12.5 °F 10.9 °F 63% 29.92 in 8.0 mi SSW 8.1 mph - 0.00 in Snow Light Snow
1:36 PM 21.2 °F 10.9 °F 12.2 °F 68% 29.81 in 4.0 mi SSW 9.2 mph - 0.00 in Snow Light Snow
1:48 PM 21.2 °F 9.5 °F 14.0 °F 74% 29.81 in 2.0 mi SSW 11.5 mph 18.4 mph 0.00 in Snow Light Snow
1:53 PM 21.0 °F 9.9 °F 12.9 °F 71% 29.90 in 2.5 mi South 10.4 mph - 0.00 in Snow Light Snow
2:01 PM 21.2 °F 10.1 °F 14.0 °F 74% 29.81 in 3.0 mi SSW 10.4 mph - 0.00 in Snow Light Snow
2:09 PM 21.2 °F 9.5 °F 14.0 °F 74% 29.80 in 2.5 mi SSW 11.5 mph - 0.00 in Snow Light Snow
2:22 PM 21.2 °F 10.9 °F 14.0 °F 74% 29.80 in 1.5 mi SSW 9.2 mph - 0.00 in Snow Light Snow
2:33 PM 19.4 °F 8.6 °F 14.0 °F 80% 29.80 in 2.0 mi SSW 9.2 mph - 0.00 in Snow Light Snow
2:43 PM 19.4 °F 8.6 °F 14.0 °F 80% 29.80 in 1.8 mi South 9.2 mph - 0.00 in Snow Light Snow
2:53 PM 21.0 °F 10.6 °F 14.0 °F 74% 29.89 in 2.5 mi SW 9.2 mph - 0.00 in Snow Light Snow
3:11 PM 19.4 °F 11.5 °F 15.8 °F 86% 29.78 in 1.5 mi South 5.8 mph - 0.00 in Snow Light Snow
3:33 PM 19.4 °F 11.5 °F 15.8 °F 86% 29.77 in 2.0 mi South 5.8 mph - 0.00 in Snow Light Snow
3:53 PM 19.9 °F 11.1 °F 15.1 °F 81% 29.86 in 4.0 mi SSW 6.9 mph - 0.00 in Snow Light Snow
4:35 PM 21.2 °F 12.6 °F 15.8 °F 80% 29.75 in 1.8 mi SSW 6.9 mph - 0.00 in Snow Light Snow
4:42 PM 19.4 °F 11.5 °F 15.8 °F 86% 29.76 in 1.2 mi SSW 5.8 mph - 0.00 in Snow Light Snow
4:53 PM 19.9 °F 14.9 °F 16.0 °F 85% 29.85 in 1.2 mi SW 3.5 mph - 0.00 in Snow Light Snow
4:58 PM 19.4 °F 11.5 °F 15.8 °F 86% 29.76 in 2.0 mi SW 5.8 mph - 0.00 in Snow Light Snow
5:07 PM 19.4 °F 14.3 °F 15.8 °F 86% 29.76 in 5.0 mi SSW 3.5 mph - 0.00 in   Haze
5:21 PM 19.4 °F 12.8 °F 15.8 °F 86% 29.77 in 2.0 mi WSW 4.6 mph - 0.00 in Snow Light Snow
5:36 PM 19.4 °F 12.8 °F 15.8 °F 86% 29.77 in 2.5 mi WSW 4.6 mph - 0.00 in Snow Light Snow
5:49 PM 19.4 °F 12.8 °F 15.8 °F 86% 29.77 in 1.8 mi WSW 4.6 mph - 0.00 in Snow Light Snow
5:53 PM 19.9 °F 14.9 °F 16.0 °F 85% 29.87 in 1.5 mi West 3.5 mph - 0.00 in Snow Light Snow
6:20 PM 19.4 °F 10.4 °F 15.8 °F 86% 29.78 in 2.0 mi West 6.9 mph - 0.00 in Snow Light Snow
6:35 PM 19.4 °F 10.4 °F 15.8 °F 86% 29.78 in 4.0 mi West 6.9 mph - 0.00 in Snow Light Snow
6:53 PM 19.9 °F 10.1 °F 16.0 °F 85% 29.88 in 3.0 mi West 8.1 mph - 0.00 in Snow Light Snow
7:00 PM 19.4 °F 9.5 °F 15.8 °F 86% 29.78 in 2.0 mi West 8.1 mph - 0.00 in Snow Light Snow
7:53 PM 19.9 °F 9.3 °F 16.0 °F 85% 29.86 in 3.0 mi West 9.2 mph - 0.00 in Snow Light Snow
8:16 PM 19.4 °F 6.6 °F 15.8 °F 86% 29.76 in 1.8 mi WNW 12.7 mph - 0.00 in Snow Light Snow
8:38 PM 19.4 °F 5.0 °F 15.8 °F 86% 29.76 in 2.5 mi WNW 16.1 mph 25.3 mph 0.00 in Snow Light Snow
8:44 PM 19.4 °F 4.5 °F 12.2 °F 74% 29.75 in 6.0 mi WNW 17.3 mph 26.5 mph 0.00 in   Haze
8:53 PM 19.0 °F 6.8 °F 10.9 °F 71% 29.84 in 9.0 mi WNW 11.5 mph 21.9 mph 0.00 in   Scattered Clouds
9:53 PM 17.1 °F 2.5 °F 9.0 °F 71% 29.83 in 10.0 mi WNW 15.0 mph 26.5 mph N/A   Clear
10:53 PM 16.0 °F 1.1 °F 6.1 °F 65% 29.82 in 10.0 mi WNW 15.0 mph 23.0 mph N/A   Clear
11:53 PM 14.0 °F 2.0 °F 6.1 °F 71% 29.82 in 10.0 mi WNW 9.2 mph - N/A   Clear